Rionegro, Colombia

6:33 PM COT on January 18, 2017 (GMT -0500)
Jose Maria Cordova

Weather History for SKRG - May, 2013

Change the Weather History Date:

Thursday, May 16, 2013

  Actual Average Record
Temperature  
Mean Temperature 63 °F -  
Max Temperature 71 °F 69 °F 77 °F (2016)
Min Temperature 55 °F 53 °F 50 °F (2004)
Degree Days  
Heating Degree Days 2    
Growing Degree Days 13 (Base 50)    
Moisture  
Dew Point 57 °F    
Average Humidity 86    
Maximum Humidity 100    
Minimum Humidity 50    
Precipitation  
Precipitation 0.47 in - - ()
Sea Level Pressure  
Sea Level Pressure 30.26 in    
Wind  
Wind Speed 2 mph ()    
Max Wind Speed 8 mph    
Max Gust Speed -    
Visibility 5.7 miles    
Events Fog , Rain , Thunderstorm    
Averages and records for this station are not official NWS values.
T = Trace of Precipitation, MM = Missing Value Source: Averaged Metar Reports

Daily Weather History Graph

Daily Weather History Graph

Search for Another Location

Airport or City:

Trip Planner

Search our weather history database for the weather conditions in past years. The results will help you decide how hot, cold, wet, or windy it might be!

Date:

Astronomy

May. 16, 2013 Rise Set
Actual Time 5:45 AM COT 6:10 PM COT
Civil Twilight 5:23 AM COT 6:32 PM COT
Nautical Twilight 4:58 AM COT 6:58 PM COT
Astronomical Twilight 4:32 AM COT 7:24 PM COT
Moon 10:56 AM COT (5/16) 11:29 PM COT (5/16)
Length of Visible Light 13h 08m
Length of Day
12h 24m
Waxing Crescent, 36% of the Moon is Illuminated
May 16
Waxing Crescent
May 17
First Quarter
May 24
Full
May 31
Last Quarter
Jun 8
New

Hourly Weather History & Observations

Time (COT) Temp. Dew Point Humidity Pressure Visibility Wind Dir Wind Speed Gust Speed Precip Events Conditions
12:00 AM 57.2 °F 55.4 °F 94% 30.30 in 6.2 mi Calm Calm - N/A   Mostly Cloudy
1:00 AM 57 °F 56 °F 95%  in 5 mi Calm Calm - - Rain Light Drizzle
1:00 AM 57.2 °F 55.4 °F 94% 30.29 in 5.0 mi Calm Calm - N/A   Light Drizzle
2:00 AM 57.2 °F 55.4 °F 94% 30.27 in 5.0 mi Calm Calm - N/A   Drizzle
3:00 AM 57.2 °F 57.2 °F 100% 30.25 in 5.0 mi Calm Calm - N/A Fog Fog
4:00 AM 57 °F 56 °F 93%  in 4 mi Calm Calm - - Rain Light Drizzle
4:00 AM 57.2 °F 57.2 °F 100% 30.25 in 5.0 mi Calm Calm - N/A Fog Fog
5:00 AM 57.2 °F 57.2 °F 100% 30.26 in 4.3 mi Calm Calm - N/A Fog Fog
5:30 AM 57.2 °F 57.2 °F 100% 30.26 in 3.7 mi Calm Calm - N/A Fog Fog
6:00 AM 57.2 °F 55.4 °F 94% 30.27 in 3.7 mi Calm Calm - N/A Fog Fog
7:00 AM 57 °F 56 °F 93%  in 2 mi Calm Calm - - Fog Patches of Fog
7:00 AM 57.2 °F 55.4 °F 94% 30.28 in 2.5 mi Calm Calm - N/A Fog Patches of Fog
8:00 AM 59.0 °F 57.2 °F 94% 30.29 in 2.5 mi Calm Calm - N/A Fog Patches of Fog
9:00 AM 60.8 °F 59.0 °F 94% 30.31 in 4.3 mi East 5.8 mph - N/A   Mostly Cloudy
10:00 AM 64 °F 58 °F 75%  in 9 mi ENE 2.2 mph - -   Haze
10:00 AM 64.4 °F 57.2 °F 77% 30.31 in 6.2 mi Variable 2.3 mph - N/A   Mostly Cloudy
11:00 AM 68.0 °F 57.2 °F 68% 30.29 in 6.2 mi Variable 2.3 mph - N/A   Mostly Cloudy
12:00 PM 69.8 °F 57.2 °F 64% 30.27 in 6.2 mi East 5.8 mph - N/A   Mostly Cloudy
1:00 PM 71 °F 56 °F 50%  in 12 mi North 6.7 mph - -   Haze
1:00 PM 71.6 °F 57.2 °F 60% 30.24 in 6.2 mi North 5.8 mph - N/A   Mostly Cloudy
2:00 PM 69.8 °F 57.2 °F 64% 30.21 in 6.2 mi ENE 8.1 mph - N/A Thunderstorm Thunderstorm
3:00 PM 69.8 °F 57.2 °F 64% 30.19 in 6.2 mi East 8.1 mph - N/A Thunderstorm Thunderstorm
4:00 PM 65 °F 58 °F 70%  in 12 mi South 2.2 mph - -   Haze
4:00 PM 64.4 °F 57.2 °F 77% 30.20 in 6.2 mi Variable 2.3 mph - N/A   Mostly Cloudy
5:00 PM 64.4 °F 59.0 °F 83% 30.19 in 6.2 mi South 5.8 mph - N/A Thunderstorm Thunderstorm
6:00 PM 64.4 °F 59.0 °F 83% 30.23 in 6.2 mi Variable 2.3 mph - N/A   Mostly Cloudy
7:00 PM 64 °F 60 °F 84%  in 7 mi NE 6.7 mph - - Thunderstorm Thunderstorm
7:00 PM 64.4 °F 60.8 °F 88% 30.25 in 6.2 mi NE 6.9 mph - N/A Thunderstorm Thunderstorm
8:00 PM 60.8 °F 59.0 °F 94% 30.27 in 5.0 mi South 6.9 mph - N/A   Light Drizzle
9:00 PM 60.8 °F 59.0 °F 94% 30.29 in 6.2 mi Calm Calm - N/A   Mostly Cloudy
10:00 PM 60 °F 58 °F 93%  in 6 mi Calm Calm - - Rain Light Drizzle
10:00 PM 59.0 °F 59.0 °F 100% 30.29 in 6.2 mi Calm Calm - N/A   Light Drizzle
11:00 PM 59.0 °F 59.0 °F 100% 30.30 in 3.1 mi NNE 4.6 mph - N/A Rain Light Rain